GW5624 Weather Reports


time (UTC)temp
C
wind
direction
speed
KPH
gust
KPH
rain 1hr
cm
rain 24hr
cm
rain mn
cm
humidity
%
barometer
mb
20260504033029 5 130 0.0 0.0 0.00 0.00 0.00 75 1014.9
20260504031514 5 130 0.0 3.2 0.00 0.00 0.00 77 1014.9
20260504030019 5 133 0.0 0.0 0.00 0.00 0.00 74 1015.1
20260504024523 5 133 0.0 1.6 0.00 0.00 0.00 72 1015.1
20260504023027 5 133 0.0 3.2 0.00 0.00 0.00 75 1015.2
20260504021532 5 252 0.0 1.6 0.00 0.00 0.00 74 1015.4
20260504020015 5 136 0.0 0.0 0.00 0.00 0.00 73 1015.2
20260504014529 6 136 0.0 0.0 0.00 0.00 0.00 70 1015.1
20260504013024 6 136 0.0 0.0 0.00 0.00 0.00 69 1015.0
20260504011528 6 134 0.0 1.6 0.00 0.00 0.00 66 1014.9
20260504010028 6 134 0.0 0.0 0.00 0.00 0.00 66 1014.8
20260504004517 6 134 0.0 1.6 0.00 0.00 0.00 69 1014.4
20260504003030 7 136 0.0 3.2 0.00 0.00 0.00 60 1014.5
20260504001524 9 235 0.0 1.6 0.00 0.00 0.00 50 1014.3
20260504000025 10 331 1.6 8.0 0.00 0.00 0.00 38 1014.3
20260503234528 11 285 1.6 6.4 0.00 0.00 0.00 36 1014.4
20260503233016 13 281 3.2 6.4 0.00 0.00 0.00 33 1014.4
20260503231523 13 297 6.4 12.9 0.00 0.00 0.00 31 1014.4
20260503230024 13 285 4.8 16.1 0.00 0.00 0.00 33 1014.5
20260503224524 14 290 6.4 12.9 0.00 0.00 0.00 31 1014.7
20260503223028 14 272 4.8 16.1 0.00 0.00 0.00 30 1014.5
20260503221516 14 226 6.4 17.7 0.00 0.00 0.00 29 1014.5
20260503220026 14 231 4.8 12.9 0.00 0.00 0.00 32 1014.5
20260503214528 14 295 6.4 14.5 0.00 0.00 0.00 29 1014.5
20260503213027 14 247 4.8 12.9 0.00 0.00 0.00 32 1014.6
20260503211529 14 224 3.2 16.1 0.00 0.00 0.00 28 1014.7
20260503210020 13 283 6.4 16.1 0.00 0.00 0.00 32 1014.8
20260503204522 13 290 6.4 16.1 0.00 0.00 0.00 30 1014.8
20260503203026 13 294 8.0 16.1 0.00 0.00 0.00 34 1015.1
20260503201528 13 276 9.7 20.9 0.00 0.00 0.00 32 1015.2
20260503200030 13 202 1.6 16.1 0.00 0.00 0.00 37 1015.5
20260503194524 13 302 9.7 17.7 0.00 0.00 0.00 34 1015.5
20260503193023 13 27 6.4 16.1 0.00 0.00 0.00 34 1016.1
20260503191536 12 298 11.3 20.9 0.00 0.00 0.00 32 1016.3
20260503190028 12 32 8.0 16.1 0.00 0.00 0.00 34 1016.3
20260503184528 12 291 4.8 19.3 0.00 0.00 0.00 40 1016.4
20260503183023 12 293 8.0 16.1 0.00 0.00 0.00 36 1016.6
20260503181525 11 113 4.8 16.1 0.00 0.00 0.00 37 1016.7
20260503180042 11 286 8.0 22.5 0.00 0.00 0.00 37 1017.0
20260503174510 11 262 9.7 17.7 0.00 0.00 0.00 35 1017.3
20260503173010 11 292 4.8 24.1 0.00 0.00 0.00 40 1017.3
20260503171509 11 65 8.0 14.5 0.00 0.00 0.00 37 1017.2
20260503081518 1 319 1.6 6.4 0.00 0.00 0.00 71 1015.2
20260503071513 2 292 1.6 3.2 0.00 0.00 0.00 68 1014.8
20260503054519 2 276 0.0 4.8 0.00 0.00 0.00 70 1014.8
20260503053026 2 266 0.0 3.2 0.00 0.00 0.00 75 1014.6
20260503051525 2 284 0.0 1.6 0.00 0.00 0.00 72 1014.5
20260503050029 3 315 1.6 3.2 0.00 0.00 0.00 69 1014.5
20260503044517 3 300 0.0 1.6 0.00 0.00 0.00 67 1014.4
20260503043033 3 339 0.0 6.4 0.00 0.00 0.00 65 1014.5
20260503041526 3 285 1.6 8.0 0.00 0.00 0.00 63 1014.4
20260503040027 3 297 4.8 12.9 0.00 0.00 0.00 62 1014.2
20260503034526 3 2 0.0 3.2 0.00 0.00 0.00 65 1014.1